Location: Fort Wayne
(41.1310°N, 85.1290°W)
Time: 00:51:12
(UTC-04:00)

Cosmos 2219 Rocket - Visible Passes

Search period start: 25 April 2018 00:00
Search period end: 05 May 2018 00:00
Orbit: 828 x 846 km, 71.0° (Epoch: 24 April)

Date Brightness Start Highest point End Pass type
(mag) Time Alt. Az. Time Alt. Az. Time Alt. Az.
25 Apr 3.0 05:53:31 10° NNW 05:59:02 56° ENE 06:04:31 10° SE visible
25 Apr 5.5 22:31:44 10° WNW 22:34:08 13° NW 22:36:33 10° NNW visible
26 Apr 3.1 05:37:12 10° NNW 05:42:39 52° ENE 05:48:05 10° SE visible
26 Apr 5.4 22:14:58 10° WNW 22:17:42 14° NW 22:20:26 10° NNW visible
27 Apr 3.3 05:20:51 10° NNW 05:26:16 48° ENE 05:31:38 10° SE visible
27 Apr 5.4 21:58:13 10° W 22:01:15 14° NW 22:04:16 10° NNW visible
28 Apr 3.4 05:04:31 10° NNW 05:09:53 44° ENE 05:15:11 10° SE visible
28 Apr 5.3 21:41:31 10° W 21:44:48 15° NW 21:48:05 10° NNW visible
29 Apr 3.5 04:48:11 10° N 04:53:29 41° ENE 04:58:44 10° SE visible
29 Apr 5.2 21:24:52 10° W 21:28:22 17° NW 21:31:53 10° N visible
30 Apr 3.6 04:31:52 10° N 04:37:05 38° ENE 04:42:16 10° SE visible
30 Apr 5.2 21:08:12 10° W 21:11:56 18° NW 21:15:39 10° N visible
01 May 3.7 04:15:33 10° N 04:20:41 36° ENE 04:25:47 10° SE visible
01 May 2.8 05:59:37 10° NW 06:04:32 32° WSW 06:09:25 10° SSW visible
02 May 3.8 03:59:14 10° N 04:04:17 33° ENE 04:09:18 10° ESE visible
02 May 2.7 05:43:11 10° NW 05:48:12 35° WSW 05:53:11 10° SSW visible
03 May 3.9 03:42:56 10° N 03:47:53 31° ENE 03:52:47 10° ESE visible
03 May 2.6 05:26:44 10° NW 05:31:51 38° WSW 05:36:56 10° S visible
04 May 4.0 03:26:38 10° N 03:31:28 29° NE 03:36:16 10° ESE visible
04 May 2.5 05:10:19 10° NW 05:15:31 41° WSW 05:20:41 10° S visible
